Flag for U.S.A. Weather past 2 weeks in Wichita Falls, Texas, U.S.A.

Now
65 °F

Thundershowers. Fog.


Feels Like: 65 °F
Forecast: 68 / 83 °F
Wind: 24 mph from North

Location: Wichita Falls - Sheppard Air Force Base

Current Time: May 28, 2015 at 8:17:04 PM

Latest Report: May 28, 2015 at 7:57 PM


Visibility: 5 mi

Pressure: 29.98 "Hg

Humidity: 91%

Dew point: 62 °F

Location of Wichita FallsLocation

Historic Weather in Wichita Falls — Graph

°F

Wichita Falls temperature yesterday

Maximum temperature yesterday: 86 °F (at 4:52 PM)
Minimum temperature yesterday: 63 °F (at 2:52 AM)
Average temperature yesterday: 72 °F

Past Weeks' High & Low Weather Summary

 TemperatureHumidityPressure
High87 °F (May 18, 3:52 PM)100% (May 18, 8:02 AM)30.26 "Hg (May 18, 8:02 AM)
Low54 °F (May 21, 7:52 AM)26% (May 17, 4:52 PM)29.62 "Hg (May 16, 5:52 PM)
Average69 °F82%29.94 "Hg
* Reported May 13 6:52 PM — May 28 6:52 PM, Wichita Falls, Weather by CustomWeather, © 2015

Note: Actual official high and low records may vary slightly from our data, if they occured in-between our weather recording intervals... More about our weather records

Advertising

Wichita Falls weather history for previous 24 hours

 ConditionsComfort  
Time TempWeatherWind HumidityBarometerVisibility
6:52 PM
Thu, May 28
64 °FStrong thunderstorms. Overcast.26 mph97%29.97 "Hg1 mi
5:52 PM80 °FPassing clouds.5 mph71%29.88 "Hg10 mi
4:52 PM82 °FSunny.9 mph65%29.89 "Hg10 mi
3:52 PM84 °FPassing clouds.13 mph59%29.90 "Hg10 mi
2:52 PM85 °FPassing clouds.15 mph61%29.94 "Hg10 mi
1:52 PM83 °FBroken clouds.12 mph65%29.96 "Hg10 mi
12:52 PM83 °FBroken clouds.14 mph68%30.01 "Hg10 mi
11:52 AM81 °FPartly sunny.13 mph72%30.01 "Hg10 mi
10:52 AM77 °FBroken clouds.16 mph77%30.02 "Hg10 mi
9:52 AM72 °FBroken clouds.7 mph81%30.03 "Hg10 mi
8:52 AM67 °FBroken clouds.9 mph90%30.01 "Hg10 mi
7:52 AM64 °FBroken clouds.8 mph94%30.01 "Hg10 mi
6:52 AM63 °FPartly cloudy.8 mph93%30.00 "Hg10 mi
6:04 AM63 °FPartly cloudy.8 mph97%30.01 "Hg10 mi
5:52 AM64 °FThunderstorms. Mostly cloudy.9 mph90%29.97 "Hg10 mi
5:02 AM63 °FThunderstorms. Fog.13 mph97%30.04 "Hg4 mi
4:52 AM63 °FStrong thunderstorms. Fog.22 mph93%30.00 "Hg2 mi
3:52 AM68 °FClear.6 mph93%29.96 "Hg10 mi
2:52 AM69 °FPassing clouds.6 mph87%29.99 "Hg10 mi
1:52 AM69 °FClear.9 mph84%29.97 "Hg10 mi
12:52 AM69 °FClear.9 mph84%29.98 "Hg10 mi
11:52 PM
Wed, May 27
72 °FClear.8 mph91%29.98 "Hg10 mi
10:52 PM73 °FPassing clouds.10 mph90%29.98 "Hg10 mi
9:52 PM73 °FClear.7 mph90%29.97 "Hg9 mi
8:52 PM73 °FScattered clouds.8 mph94%29.95 "Hg10 mi
Weather by CustomWeather, © 2015

See weather overviewHow to use our weather pages